Charlotte, NC

8:01 PM EST on November 18, 2019 (GMT -0500)
Charlotte-Douglas International

Weather History for KCLT - October, 2019

Change the Weather History Date:

Monday, October 21, 2019

  Actual Average Record
Temperature  
Mean Temperature 65 °F 59 °F  
Max Temperature 75 °F 70 °F 88 °F (1943)
Min Temperature 55 °F 47 °F 30 °F (1952)
Degree Days  
Heating Degree Days 0 7  
Month to date heating degree days 38 99  
Since 1 July heating degree days 38 122  
Cooling Degree Days 0 1  
Month to date cooling degree days 107 34  
Year to date cooling degree days 2234 1509  
Growing Degree Days 15 (Base 50)    
Moisture  
Dew Point 58 °F    
Average Humidity 77    
Maximum Humidity 93    
Minimum Humidity 61    
Precipitation  
Precipitation 0.00 in 0.11 in 1.31 in (1929)
Month to date precipitation 3.07 2.41  
Year to date precipitation 42.40 34.25  
Snow  
Snow 0.00 in 0.00 in 0.00 in ()
Month to date snowfall 0.0 0.0  
Since 1 July snowfall T 0.0  
Since 1 September snowfall 0.0 0.0  
Snow Depth 0.00 in    
Sea Level Pressure  
Sea Level Pressure 30.02 in    
Wind  
Wind Speed 8 mph (SE)    
Max Wind Speed 13 mph    
Max Gust Speed 19 mph    
Visibility 10 miles    
Events      
T = Trace of Precipitation, MM = Missing Value Source: NWS Daily Summary

Daily Weather History Graph

Daily Weather History Graph

Search for Another Location

Airport or City:

Astronomy

Oct. 21, 2019 Rise Set
Actual Time 7:34 AM EDT 6:41 PM EDT
Civil Twilight 7:09 AM EDT 7:07 PM EDT
Nautical Twilight 6:39 AM EDT 7:36 PM EDT
Astronomical Twilight 6:10 AM EDT 8:06 PM EDT
Moon No Moon Rise 2:44 PM EDT (10/21)
Length of Visible Light 11h 58m
Length of Day
11h 06m
Waning Gibbous, 48% of the Moon is Illuminated
Oct 21
Waning Gibbous
Oct 27
New
Nov 4
First Quarter
Nov 12
Full
Nov 19
Last Quarter

Hourly Weather History & Observations

Time (EDT) Temp. Dew Point Humidity Pressure Visibility Wind Dir Wind Speed Gust Speed Precip Events Conditions
12:52 AM 64.0 °F 57.0 °F 78% 29.97 in 10.0 mi East 3.5 mph - N/A   Partly Cloudy
1:52 AM 61.0 °F 57.0 °F 87% 29.99 in 10.0 mi NE 3.5 mph - N/A   Partly Cloudy
2:52 AM 61.0 °F 57.0 °F 87% 29.99 in 10.0 mi ENE 4.6 mph - N/A   Partly Cloudy
3:52 AM 60.1 °F 55.9 °F 86% 29.99 in 10.0 mi Calm Calm - N/A   Partly Cloudy
4:52 AM 57.9 °F 55.0 °F 90% 30.01 in 10.0 mi South 3.5 mph - N/A   Partly Cloudy
5:52 AM 59.0 °F 55.9 °F 90% 30.00 in 10.0 mi ESE 5.8 mph - N/A   Partly Cloudy
6:41 AM 61.0 °F 55.9 °F 83% 30.03 in 10.0 mi East 5.8 mph - N/A   Mostly Cloudy
6:52 AM 61.0 °F 55.9 °F 83% 30.02 in 10.0 mi East 8.1 mph - N/A   Mostly Cloudy
7:52 AM 61.0 °F 55.9 °F 83% 30.04 in 10.0 mi ESE 8.1 mph - N/A   Mostly Cloudy
8:52 AM 62.1 °F 55.9 °F 80% 30.06 in 10.0 mi ESE 8.1 mph - N/A   Overcast
9:52 AM 64.0 °F 57.0 °F 78% 30.07 in 10.0 mi SE 8.1 mph - N/A   Overcast
10:52 AM 66.9 °F 55.9 °F 68% 30.06 in 10.0 mi SE 10.4 mph - N/A   Overcast
11:52 AM 69.1 °F 57.0 °F 65% 30.07 in 10.0 mi SE 9.2 mph - N/A   Mostly Cloudy
12:52 PM 73.0 °F 59.0 °F 61% 30.06 in 10.0 mi ESE 6.9 mph - N/A   Mostly Cloudy
1:52 PM 73.0 °F 59.0 °F 61% 30.03 in 10.0 mi SSE 10.4 mph - N/A   Mostly Cloudy
2:04 PM 75.0 °F 60.1 °F 60% 30.05 in 10.0 mi SSE 10.4 mph - N/A   Mostly Cloudy
2:52 PM 73.9 °F 60.1 °F 62% 30.01 in 10.0 mi South 9.2 mph - N/A   Mostly Cloudy
2:59 PM 73.0 °F 60.1 °F 64% 30.03 in 10.0 mi SSE 10.4 mph - N/A   Mostly Cloudy
3:52 PM 73.0 °F 60.1 °F 64% 30.01 in 10.0 mi SSE 8.1 mph - N/A   Overcast
4:52 PM 73.9 °F 60.1 °F 62% 30.01 in 10.0 mi South 10.4 mph - N/A   Mostly Cloudy
5:52 PM 72.0 °F 61.0 °F 68% 30.01 in 10.0 mi SSE 8.1 mph - N/A   Mostly Cloudy
6:52 PM 71.1 °F 61.0 °F 70% 30.01 in 10.0 mi SSE 8.1 mph - N/A   Overcast
7:52 PM 70.0 °F 61.0 °F 73% 30.01 in 10.0 mi SE 10.4 mph - N/A   Mostly Cloudy
8:52 PM 71.1 °F 61.0 °F 70% 30.02 in 10.0 mi SSE 6.9 mph - N/A   Overcast
9:52 PM 70.0 °F 61.0 °F 73% 30.01 in 10.0 mi SSE 6.9 mph - N/A   Overcast
10:52 PM 69.1 °F 61.0 °F 75% 30.01 in 10.0 mi SSE 9.2 mph - N/A   Mostly Cloudy
11:52 PM 69.1 °F 61.0 °F 75% 30.01 in 10.0 mi SSE 9.2 mph - N/A   Overcast